Location: Bannatyne
(13.0833°N, 59.5333°W)
Time: 06:43:55
(UTC+00:00)

Vanguard 3 - Pass Details

Date: 28 January 2020
Orbit: 508 x 3263 km, 33.3° (Epoch: 17 February)

Event Time Altitude Azimuth Distance (km) Brightness Sun altitude
Rises 18:18:22 0° 238° (WSW) 5,370 12.1 45.7°
Reaches altitude 10° 18:21:20 10° 239° (WSW) 4,672 12.0 45.2°
Maximum altitude 18:36:01 85° 327° (NNW) 2,958 10.7 42.5°
Drops below altitude 10° 18:56:22 10° 56° (NE) 6,164 11.2 38.6°
Sets 19:01:00 0° 57° (ENE) 7,081 11.5 37.7°
